User: anonymous   Login
Location: Wildcat Hills Observatory
(41.6350°N, 103.6812°W)
Time: 18:59:28
(UTC-06:00)
Language:

Cosmos 1634 Rocket - Orbit

View from above orbital plane
View from above orbital plane
View from above satellite
View from above satellite

Ground track
Ground track

The orbit data is extracted from the following two-line orbital elements,

1 15598U 85022B   16124.88460360  .00000019  00000-0  36340-5 0  9995
2 15598  82.9397  51.3323 0022232 170.4084 251.4544 13.76542585564152
Epoch (UTC): 03 May 2016 21:13:49
Eccentricity: 0.0022232
inclination: 82.9397°
perigee height: 960 km
apogee height: 992 km
right ascension of ascending node: 51.3323°
argument of perigee: 170.4084°
revolutions per day: 13.76542585
mean anomaly at epoch: 251.4544°
orbit number at epoch: 56415

The dashed part of the orbit path shows where the satellite is in the earth's shadow,  

DLR